Location: Dorchester
(45.9077°N, 64.5103°W)
Time: 18:27:27
(UTC+00:00)

N. Korean satellite - Visible Passes

Search period start: 27 November 2021 00:00
Search period end: 07 December 2021 00:00
Orbit: 447 x 495 km, 97.3° (Epoch: 26 November)

Date Brightness Start Highest point End Pass type
(mag) Time Alt. Az. Time Alt. Az. Time Alt. Az.
27 Nov 6.2 09:46:26 10° N 09:49:52 76° WNW 09:53:14 10° SSW visible
27 Nov 10.1 21:58:16 10° WSW 21:59:25 11° W 22:00:35 10° WNW visible
28 Nov 7.6 09:18:06 10° NNE 09:21:23 43° E 09:24:37 10° S visible
28 Nov 8.2 10:52:35 10° NW 10:54:12 13° WNW 10:55:49 10° W visible
28 Nov 9.3 21:27:49 10° SSW 21:30:45 23° W 21:33:40 10° NW visible
29 Nov 9.1 08:50:14 10° NE 08:52:47 19° E 08:55:18 10° SE visible
29 Nov 7.4 10:23:06 10° NNW 10:25:59 26° WNW 10:28:50 10° SW visible
30 Nov 6.3 09:54:17 10° N 09:57:38 58° WNW 10:00:58 10° SSW visible
01 Dec 7.0 09:25:49 10° NNE 09:29:10 56° E 09:32:30 10° S visible
01 Dec 8.4 11:01:10 10° NW 11:01:53 11° WNW 11:02:37 10° WNW visible
01 Dec 9.6 21:35:58 10° SW 21:38:35 19° W 21:41:10 10° NW visible
02 Dec 8.8 08:57:45 10° NE 09:00:35 24° E 09:03:23 10° SSE visible
02 Dec 7.6 10:31:03 10° NNW 10:33:40 21° WNW 10:36:17 10° WSW visible
02 Dec 8.1 21:06:35 10° S 21:09:58 40° W 21:13:18 10° NNW visible
03 Dec 9.9 08:30:47 10° ENE 08:31:52 11° E 08:32:57 10° ESE visible
03 Dec 6.6 10:02:04 10° N 10:05:20 45° WNW 10:08:35 10° SSW visible
04 Dec 6.5 09:33:29 10° NNE 09:36:52 72° E 09:40:15 10° S visible
04 Dec 9.7 21:44:10 10° SW 21:46:20 15° W 21:48:30 10° NW visible
05 Dec 8.3 09:05:16 10° NNE 09:08:18 30° E 09:11:19 10° SSE visible
05 Dec 7.9 10:38:58 10° NNW 10:41:17 17° WNW 10:43:36 10° WSW visible
05 Dec 8.6 21:14:28 10° SSW 21:17:40 32° W 21:20:51 10° NNW visible
06 Dec 9.6 08:37:45 10° ENE 08:39:36 14° E 08:41:25 10° SE visible
06 Dec 6.9 10:09:49 10° N 10:12:57 36° WNW 10:16:05 10° SW visible
